Location: Riverside Cemetery
(38.3047°N, 99.7773°W)
Time: 06:33:48
(UTC+00:00)

PAYLOAD A - Pass Details

Date: 19 September 2020
Orbit: 691 x 833 km, 98.3° (Epoch: 18 October)

Event Time Altitude Azimuth Distance (km) Brightness Sun altitude
Rises 10:57:12 0° 6° (N) 3,084 7.4 -17.7°
Reaches altitude 10° 10:59:30 10° 2° (N) 2,156 6.5 -17.3°
Maximum altitude 11:04:02 50° 288° (WNW) 883 4.0 -16.5°
Enters shadow 11:07:00 20° 220° (SW) 1,563 5.1 -15.9°
